DAL1257 KATL-KBWI

Flight info

Callsign DAL1257
Flight time 1h 21m
Altitude 35000
Route JACCC2 KELLN Q58 PEETT THHMP RAVNN8
Aircraft A321/M-SDE3FGHIRWY/LB1

Departure

Time 2026-05-07 23:11
Airport Hartsfield Jackson Atlanta International Airport (KATL)

Arrival

Time 2026-05-08 00:32
Airport Baltimore/Washington International Thurgood Marshall Airport (KBWI)
Time Latitude Longitude Altitude Speed Heading
2026-05-07 22:20 33.63755 -84.43533 1006 ft 0 kts 301°
2026-05-07 22:37 33.63755 -84.43532 1006 ft 0 kts 301°
2026-05-07 22:47 33.63754 -84.43532 1006 ft 0 kts 301°
2026-05-07 22:55 33.63754 -84.43531 1006 ft 1 kts 301°
2026-05-07 22:56 33.63747 -84.43516 1006 ft 4 kts 287°
2026-05-07 22:56 33.63745 -84.43487 1006 ft 4 kts 247°
2026-05-07 22:56 33.63760 -84.43461 1006 ft 4 kts 220°
2026-05-07 22:56 33.63781 -84.43442 1006 ft 3 kts 218°
2026-05-07 22:57 33.63784 -84.43439 1006 ft 2 kts 219°
2026-05-07 22:59 33.63772 -84.43449 1006 ft 5 kts 210°
2026-05-07 22:59 33.63748 -84.43457 1006 ft 2 kts 188°
2026-05-07 23:00 33.63744 -84.43457 1003 ft 0 kts 184°
2026-05-07 23:03 33.63741 -84.43457 1003 ft 3 kts 184°
2026-05-07 23:03 33.63691 -84.43446 1006 ft 11 kts 149°
2026-05-07 23:04 33.63664 -84.43349 1006 ft 13 kts 90°
2026-05-07 23:04 33.63664 -84.43245 1006 ft 14 kts 90°
2026-05-07 23:04 33.63663 -84.43095 1006 ft 22 kts 89°
2026-05-07 23:04 33.63664 -84.42884 1006 ft 27 kts 90°
2026-05-07 23:05 33.63655 -84.42668 1007 ft 25 kts 92°
2026-05-07 23:05 33.63655 -84.42463 1007 ft 24 kts 90°
2026-05-07 23:05 33.63655 -84.42268 1007 ft 23 kts 90°
2026-05-07 23:05 33.63655 -84.42086 1007 ft 21 kts 90°
2026-05-07 23:06 33.63654 -84.41907 1006 ft 22 kts 90°
2026-05-07 23:06 33.63655 -84.41719 1006 ft 23 kts 90°
2026-05-07 23:06 33.63655 -84.41522 1006 ft 24 kts 90°
2026-05-07 23:06 33.63655 -84.41316 1006 ft 25 kts 90°
2026-05-07 23:07 33.63655 -84.41110 1006 ft 25 kts 90°
2026-05-07 23:07 33.63652 -84.40952 1006 ft 14 kts 100°
2026-05-07 23:07 33.63591 -84.40908 1006 ft 10 kts 178°
2026-05-07 23:07 33.63574 -84.40908 1006 ft 0 kts 181°
2026-05-07 23:08 33.63557 -84.40909 1006 ft 6 kts 181°
2026-05-07 23:08 33.63509 -84.40909 1007 ft 6 kts 181°
2026-05-07 23:08 33.63478 -84.40930 1007 ft 5 kts 236°
2026-05-07 23:08 33.63471 -84.40981 1007 ft 0 kts 270°
2026-05-07 23:10 33.63471 -84.40982 1007 ft 1 kts 270°
2026-05-07 23:10 33.63472 -84.41100 1006 ft 42 kts 270°
2026-05-07 23:10 33.63472 -84.41728 1006 ft 105 kts 270°
2026-05-07 23:10 33.63473 -84.42811 1007 ft 152 kts 270°
2026-05-07 23:11 33.63467 -84.44215 1156 ft 176 kts 271°
2026-05-07 23:11 33.63455 -84.45691 1777 ft 176 kts 270°
2026-05-07 23:11 33.63425 -84.47150 2456 ft 174 kts 262°
2026-05-07 23:11 33.63038 -84.48521 2878 ft 181 kts 241°
2026-05-07 23:12 33.62410 -84.49919 3079 ft 198 kts 241°
2026-05-07 23:12 33.61732 -84.51449 3270 ft 223 kts 242°
2026-05-07 23:12 33.60995 -84.53184 3711 ft 242 kts 242°
2026-05-07 23:12 33.60227 -84.55022 4539 ft 248 kts 243°
2026-05-07 23:13 33.59428 -84.56865 5426 ft 251 kts 237°
2026-05-07 23:13 33.58096 -84.58225 6267 ft 262 kts 205°
2026-05-07 23:13 33.56263 -84.58568 7137 ft 271 kts 187°
2026-05-07 23:13 33.54367 -84.58603 7950 ft 275 kts 186°
2026-05-07 23:14 33.52446 -84.58579 8708 ft 278 kts 185°
2026-05-07 23:14 33.50499 -84.58537 9457 ft 281 kts 186°
2026-05-07 23:14 33.48529 -84.58274 10124 ft 295 kts 168°
2026-05-07 23:14 33.46744 -84.56917 10716 ft 318 kts 137°
2026-05-07 23:15 33.45650 -84.54555 11218 ft 340 kts 109°
2026-05-07 23:15 33.45246 -84.51659 11334 ft 365 kts 96°
2026-05-07 23:15 33.45183 -84.48538 11516 ft 385 kts 90°
2026-05-07 23:15 33.45296 -84.45296 12020 ft 393 kts 88°
2026-05-07 23:16 33.45449 -84.42006 12594 ft 398 kts 88°
2026-05-07 23:16 33.45571 -84.38679 13173 ft 403 kts 89°
2026-05-07 23:16 33.45838 -84.35322 13735 ft 408 kts 80°
2026-05-07 23:16 33.46546 -84.32019 14255 ft 412 kts 69°
2026-05-07 23:17 33.47720 -84.28877 14762 ft 414 kts 59°
2026-05-07 23:17 33.49078 -84.25822 15291 ft 418 kts 59°
2026-05-07 23:17 33.50455 -84.22736 15825 ft 421 kts 59°
2026-05-07 23:17 33.51842 -84.19631 16340 ft 425 kts 58°
2026-05-07 23:18 33.53249 -84.16487 16838 ft 429 kts 58°
2026-05-07 23:18 33.54665 -84.13321 17363 ft 433 kts 58°
2026-05-07 23:18 33.56092 -84.10120 17843 ft 437 kts 58°
2026-05-07 23:18 33.57528 -84.06894 18336 ft 441 kts 58°
2026-05-07 23:19 33.58978 -84.03637 18776 ft 444 kts 58°
2026-05-07 23:19 33.60436 -84.00359 19213 ft 447 kts 58°
2026-05-07 23:19 33.61905 -83.97054 19639 ft 451 kts 58°
2026-05-07 23:19 33.63363 -83.93769 20056 ft 454 kts 58°
2026-05-07 23:20 33.64852 -83.90407 20458 ft 458 kts 58°
2026-05-07 23:20 33.66351 -83.87020 20873 ft 461 kts 57°
2026-05-07 23:20 33.67865 -83.83604 21300 ft 464 kts 57°
2026-05-07 23:20 33.69388 -83.80167 21720 ft 467 kts 57°
2026-05-07 23:21 33.70921 -83.76699 22133 ft 471 kts 57°
2026-05-07 23:21 33.72456 -83.73217 22545 ft 474 kts 57°
2026-05-07 23:21 33.74003 -83.69702 22946 ft 477 kts 57°
2026-05-07 23:21 33.75559 -83.66167 23343 ft 480 kts 57°
2026-05-07 23:22 33.77182 -83.62649 23710 ft 481 kts 54°
2026-05-07 23:22 33.78928 -83.59213 24039 ft 482 kts 52°
2026-05-07 23:22 33.80767 -83.55828 24371 ft 484 kts 50°
2026-05-07 23:22 33.82631 -83.52505 24707 ft 486 kts 50°
2026-05-07 23:23 33.84533 -83.49130 25025 ft 488 kts 50°
2026-05-07 23:23 33.86428 -83.45715 25357 ft 492 kts 51°
2026-05-07 23:23 33.88303 -83.42262 25671 ft 494 kts 51°
2026-05-07 23:23 33.90166 -83.38772 26003 ft 497 kts 52°
2026-05-07 23:24 33.92030 -83.35247 26320 ft 500 kts 52°
2026-05-07 23:24 33.93900 -83.31699 26633 ft 503 kts 52°
2026-05-07 23:24 33.95784 -83.28130 26935 ft 505 kts 52°
2026-05-07 23:24 33.97680 -83.24545 27246 ft 507 kts 52°
2026-05-07 23:25 33.99591 -83.20945 27550 ft 510 kts 52°
2026-05-07 23:25 34.01507 -83.17335 27854 ft 512 kts 52°
2026-05-07 23:25 34.03431 -83.13708 28149 ft 514 kts 52°
2026-05-07 23:25 34.05337 -83.10109 28432 ft 517 kts 52°
2026-05-07 23:26 34.07276 -83.06445 28707 ft 519 kts 52°
2026-05-07 23:26 34.09221 -83.02764 28993 ft 521 kts 52°
2026-05-07 23:26 34.11169 -82.99070 29283 ft 523 kts 52°
2026-05-07 23:26 34.13127 -82.95356 29549 ft 525 kts 52°
2026-05-07 23:27 34.17050 -82.87866 30068 ft 529 kts 52°
2026-05-07 23:27 34.19016 -82.84094 30289 ft 531 kts 52°
2026-05-07 23:27 34.20992 -82.80301 30499 ft 534 kts 52°
2026-05-07 23:28 34.22974 -82.76495 30708 ft 536 kts 52°
2026-05-07 23:28 34.24939 -82.72721 30993 ft 536 kts 52°
2026-05-07 23:28 34.26922 -82.68901 31307 ft 536 kts 52°
2026-05-07 23:28 34.28899 -82.65081 31589 ft 536 kts 52°
2026-05-07 23:29 34.30782 -82.61439 31864 ft 537 kts 52°
2026-05-07 23:29 34.32767 -82.57601 32168 ft 537 kts 52°
2026-05-07 23:29 34.34751 -82.53769 32485 ft 537 kts 52°
2026-05-07 23:29 34.36738 -82.49937 32802 ft 537 kts 52°
2026-05-07 23:30 34.38723 -82.46103 33099 ft 537 kts 52°
2026-05-07 23:30 34.40703 -82.42271 33403 ft 537 kts 52°
2026-05-07 23:30 34.42681 -82.38437 33718 ft 537 kts 52°
2026-05-07 23:30 34.44655 -82.34596 34002 ft 537 kts 52°
2026-05-07 23:31 34.46572 -82.30706 34253 ft 539 kts 54°
2026-05-07 23:31 34.48414 -82.26745 34520 ft 540 kts 56°
2026-05-07 23:31 34.50198 -82.22733 34733 ft 541 kts 56°
2026-05-07 23:31 34.51954 -82.18709 34873 ft 541 kts 57°
2026-05-07 23:32 34.55614 -82.10851 34898 ft 531 kts 52°
2026-05-07 23:32 34.59618 -82.03371 34904 ft 527 kts 49°
2026-05-07 23:33 34.63659 -81.96010 34902 ft 528 kts 50°
2026-05-07 23:33 34.67630 -81.88478 34895 ft 531 kts 51°
2026-05-07 23:34 34.71532 -81.80857 34890 ft 531 kts 52°
2026-05-07 23:34 34.75448 -81.73232 34893 ft 532 kts 51°
2026-05-07 23:35 34.79390 -81.65613 34870 ft 533 kts 51°
2026-05-07 23:35 34.83340 -81.57975 34868 ft 534 kts 51°
2026-05-07 23:36 34.87288 -81.50312 34866 ft 535 kts 51°
2026-05-07 23:36 34.91224 -81.42627 34874 ft 536 kts 51°
2026-05-07 23:37 34.95172 -81.34912 34877 ft 536 kts 51°
2026-05-07 23:37 34.99115 -81.27217 34882 ft 537 kts 51°
2026-05-07 23:38 35.03074 -81.19477 34908 ft 538 kts 51°
2026-05-07 23:38 35.07027 -81.11704 34919 ft 539 kts 51°
2026-05-07 23:39 35.10976 -81.03899 34915 ft 541 kts 51°
2026-05-07 23:39 35.14939 -80.96085 34931 ft 542 kts 51°
2026-05-07 23:40 35.18908 -80.88255 34929 ft 543 kts 51°
2026-05-07 23:40 35.22878 -80.80394 34929 ft 544 kts 51°
2026-05-07 23:41 35.26180 -80.73839 34942 ft 544 kts 51°
2026-05-07 23:41 35.30791 -80.64649 34950 ft 545 kts 51°
2026-05-07 23:42 35.34119 -80.58010 34949 ft 546 kts 51°
2026-05-07 23:42 35.38092 -80.50078 34931 ft 547 kts 51°
2026-05-07 23:43 35.42065 -80.42111 34934 ft 547 kts 51°
2026-05-07 23:43 35.46004 -80.34188 34961 ft 548 kts 51°
2026-05-07 23:44 35.49979 -80.26173 34970 ft 549 kts 51°
2026-05-07 23:44 35.54112 -80.18346 34973 ft 544 kts 46°
2026-05-07 23:45 35.58532 -80.10814 34963 ft 543 kts 44°
2026-05-07 23:45 35.62982 -80.03328 34982 ft 544 kts 45°
2026-05-07 23:46 35.67353 -79.95715 34989 ft 546 kts 46°
2026-05-07 23:46 35.71674 -79.88034 34995 ft 546 kts 46°
2026-05-07 23:47 35.76001 -79.80340 34985 ft 546 kts 46°
2026-05-07 23:47 35.80348 -79.72667 34973 ft 546 kts 46°
2026-05-07 23:48 35.84719 -79.64962 34920 ft 550 kts 45°
2026-05-07 23:48 35.89094 -79.57201 34911 ft 552 kts 46°
2026-05-07 23:49 35.93474 -79.49384 34908 ft 554 kts 46°
2026-05-07 23:49 35.97825 -79.41607 34924 ft 555 kts 46°
2026-05-07 23:50 36.02220 -79.33761 34931 ft 556 kts 46°
2026-05-07 23:50 36.06616 -79.25897 34939 ft 557 kts 46°
2026-05-07 23:51 36.11011 -79.17997 34968 ft 557 kts 46°
2026-05-07 23:51 36.15389 -79.10097 34984 ft 557 kts 46°
2026-05-07 23:52 36.19773 -79.02176 34994 ft 557 kts 46°
2026-05-07 23:52 36.24160 -78.94265 34982 ft 557 kts 46°
2026-05-07 23:53 36.28553 -78.86330 34982 ft 558 kts 46°
2026-05-07 23:53 36.32898 -78.78442 34975 ft 558 kts 46°
2026-05-07 23:54 36.37268 -78.70471 34968 ft 558 kts 46°
2026-05-07 23:54 36.41633 -78.62503 34970 ft 558 kts 46°
2026-05-07 23:55 36.46358 -78.55031 34969 ft 538 kts 32°
2026-05-07 23:55 36.51763 -78.48675 34965 ft 535 kts 31°
2026-05-07 23:56 36.57180 -78.42320 34967 ft 535 kts 31°
2026-05-07 23:56 36.62585 -78.35941 34974 ft 536 kts 31°
2026-05-07 23:57 36.67994 -78.29539 34978 ft 536 kts 31°
2026-05-07 23:57 36.73396 -78.23129 35020 ft 537 kts 31°
2026-05-07 23:58 36.78798 -78.16709 35014 ft 537 kts 31°
2026-05-07 23:58 36.84200 -78.10271 35009 ft 537 kts 31°
2026-05-07 23:59 36.89569 -78.03878 34958 ft 537 kts 31°
2026-05-07 23:59 36.94968 -77.97423 34953 ft 537 kts 31°
2026-05-08 00:00 37.00367 -77.90947 34947 ft 537 kts 31°
2026-05-08 00:00 37.05763 -77.84474 34951 ft 537 kts 31°
2026-05-08 00:01 37.11157 -77.77990 34924 ft 540 kts 32°
2026-05-08 00:01 37.13899 -77.74707 34697 ft 549 kts 32°
2026-05-08 00:01 37.16669 -77.71383 34202 ft 552 kts 32°
2026-05-08 00:02 37.19449 -77.68031 33453 ft 554 kts 32°
2026-05-08 00:02 37.22198 -77.64690 32989 ft 549 kts 32°
2026-05-08 00:02 37.24957 -77.61337 32024 ft 555 kts 33°
2026-05-08 00:02 37.27739 -77.57958 31369 ft 554 kts 33°
2026-05-08 00:03 37.30485 -77.54617 30966 ft 547 kts 33°
2026-05-08 00:03 37.33172 -77.51350 30469 ft 543 kts 33°
2026-05-08 00:03 37.35879 -77.48063 29994 ft 538 kts 33°
2026-05-08 00:03 37.38555 -77.44811 29442 ft 533 kts 34°
2026-05-08 00:04 37.41204 -77.41583 28917 ft 527 kts 34°
2026-05-08 00:04 37.43824 -77.38389 28401 ft 521 kts 34°
2026-05-08 00:04 37.46474 -77.35353 27898 ft 506 kts 27°
2026-05-08 00:04 37.49359 -77.32986 27411 ft 483 kts 16°
2026-05-08 00:05 37.52361 -77.31376 27133 ft 455 kts
2026-05-08 00:05 37.55333 -77.30421 26905 ft 431 kts 358°
2026-05-08 00:05 37.58260 -77.29708 26450 ft 424 kts 358°
2026-05-08 00:05 37.61141 -77.29010 25724 ft 418 kts 358°
2026-05-08 00:06 37.63989 -77.28325 24997 ft 414 kts 358°
2026-05-08 00:06 37.66807 -77.27650 24291 ft 410 kts 359°
2026-05-08 00:06 37.69596 -77.26981 23594 ft 406 kts 359°
2026-05-08 00:06 37.72351 -77.26317 23063 ft 399 kts 360°
2026-05-08 00:07 37.75033 -77.25648 22913 ft 399 kts
2026-05-08 00:07 37.77772 -77.24952 22955 ft 401 kts
2026-05-08 00:07 37.80504 -77.24246 22948 ft 401 kts
2026-05-08 00:07 37.83235 -77.23533 22947 ft 401 kts
2026-05-08 00:08 37.85968 -77.22817 22946 ft 401 kts
2026-05-08 00:08 37.88698 -77.22103 22942 ft 401 kts
2026-05-08 00:08 37.91432 -77.21388 22884 ft 402 kts
2026-05-08 00:08 37.94177 -77.20673 22429 ft 400 kts
2026-05-08 00:09 37.96892 -77.19960 22112 ft 397 kts
2026-05-08 00:09 37.99585 -77.19255 21773 ft 395 kts
2026-05-08 00:09 38.02270 -77.18554 21443 ft 393 kts
2026-05-08 00:09 38.04940 -77.17856 21111 ft 391 kts
2026-05-08 00:10 38.07593 -77.17163 20746 ft 389 kts
2026-05-08 00:10 38.10245 -77.16470 20211 ft 389 kts
2026-05-08 00:10 38.12890 -77.15778 19745 ft 387 kts
2026-05-08 00:10 38.15529 -77.15085 19267 ft 386 kts
2026-05-08 00:11 38.18142 -77.14394 18845 ft 383 kts
2026-05-08 00:11 38.20741 -77.13713 18443 ft 380 kts
2026-05-08 00:11 38.23339 -77.13037 17959 ft 379 kts
2026-05-08 00:11 38.25874 -77.12375 17521 ft 376 kts
2026-05-08 00:12 38.28460 -77.11696 17062 ft 373 kts
2026-05-08 00:12 38.30991 -77.11036 16645 ft 369 kts
2026-05-08 00:12 38.33462 -77.10406 16252 ft 366 kts
2026-05-08 00:12 38.35928 -77.09584 15962 ft 369 kts 12°
2026-05-08 00:13 38.38247 -77.08123 15560 ft 377 kts 26°
2026-05-08 00:13 38.40407 -77.06212 15119 ft 377 kts 29°
2026-05-08 00:13 38.42555 -77.04288 14667 ft 377 kts 29°
2026-05-08 00:13 38.44699 -77.02368 14233 ft 377 kts 29°
2026-05-08 00:14 38.46845 -77.00445 13778 ft 377 kts 29°
2026-05-08 00:14 38.48994 -76.98521 13294 ft 377 kts 29°
2026-05-08 00:14 38.51135 -76.96606 12843 ft 375 kts 29°
2026-05-08 00:14 38.53270 -76.94703 12448 ft 371 kts 29°
2026-05-08 00:15 38.55328 -76.92769 12149 ft 367 kts 36°
2026-05-08 00:15 38.57209 -76.90577 11484 ft 365 kts 38°
2026-05-08 00:15 38.59050 -76.88381 10955 ft 359 kts 38°
2026-05-08 00:15 38.60851 -76.86211 10415 ft 354 kts 38°
2026-05-08 00:16 38.62633 -76.84057 10171 ft 347 kts 38°
2026-05-08 00:16 38.64355 -76.81974 10042 ft 335 kts 38°
2026-05-08 00:16 38.66026 -76.79960 9866 ft 327 kts 37°
2026-05-08 00:16 38.67674 -76.77982 9550 ft 322 kts 37°
2026-05-08 00:17 38.69296 -76.76034 9238 ft 317 kts 38°
2026-05-08 00:17 38.70761 -76.73928 8927 ft 318 kts 50°
2026-05-08 00:17 38.71889 -76.71507 8645 ft 315 kts 57°
2026-05-08 00:17 38.72947 -76.69070 8354 ft 310 kts 57°
2026-05-08 00:18 38.73986 -76.66676 8068 ft 306 kts 57°
2026-05-08 00:18 38.75014 -76.64316 7782 ft 301 kts 57°
2026-05-08 00:18 38.76028 -76.61985 7505 ft 297 kts 57°
2026-05-08 00:18 38.77194 -76.59868 7226 ft 287 kts 42°
2026-05-08 00:19 38.78682 -76.58245 6963 ft 277 kts 28°
2026-05-08 00:19 38.80380 -76.57170 6684 ft 268 kts 14°
2026-05-08 00:19 38.82168 -76.56611 6417 ft 262 kts
2026-05-08 00:19 38.83949 -76.56177 6138 ft 259 kts
2026-05-08 00:20 38.85730 -76.56185 5909 ft 255 kts 350°
2026-05-08 00:20 38.87452 -76.56620 5758 ft 255 kts 347°
2026-05-08 00:20 38.89186 -76.57083 5599 ft 255 kts 347°
2026-05-08 00:20 38.90951 -76.57551 5432 ft 255 kts 347°
2026-05-08 00:21 38.92655 -76.58004 5264 ft 250 kts 347°
2026-05-08 00:21 38.94323 -76.58445 5121 ft 240 kts 347°
2026-05-08 00:21 38.95903 -76.59020 4945 ft 232 kts 334°
2026-05-08 00:21 38.97230 -76.60179 4981 ft 235 kts 316°
2026-05-08 00:22 38.98203 -76.61856 4825 ft 235 kts 300°
2026-05-08 00:22 38.99008 -76.63689 4682 ft 235 kts 301°
2026-05-08 00:22 38.99821 -76.65519 4527 ft 235 kts 301°
2026-05-08 00:22 39.00635 -76.67342 4377 ft 235 kts 301°
2026-05-08 00:23 39.01448 -76.69161 4242 ft 233 kts 301°
2026-05-08 00:23 39.02242 -76.70938 4147 ft 226 kts 301°
2026-05-08 00:23 39.03022 -76.72679 4048 ft 224 kts 301°
2026-05-08 00:23 39.03802 -76.74415 4053 ft 224 kts 301°
2026-05-08 00:24 39.04584 -76.76145 4053 ft 224 kts 301°
2026-05-08 00:24 39.05367 -76.77877 4054 ft 224 kts 301°
2026-05-08 00:24 39.06152 -76.79612 4053 ft 224 kts 301°
2026-05-08 00:24 39.06935 -76.81343 4054 ft 224 kts 301°
2026-05-08 00:25 39.07634 -76.83124 4056 ft 224 kts 290°
2026-05-08 00:25 39.08138 -76.85027 4055 ft 225 kts 290°
2026-05-08 00:25 39.08638 -76.86908 4054 ft 225 kts 289°
2026-05-08 00:25 39.09145 -76.88809 4052 ft 225 kts 290°
2026-05-08 00:26 39.09653 -76.90709 3967 ft 224 kts 290°
2026-05-08 00:26 39.10159 -76.92599 3638 ft 223 kts 289°
2026-05-08 00:26 39.10845 -76.94376 3326 ft 222 kts 313°
2026-05-08 00:26 39.12131 -76.95404 3077 ft 219 kts 347°
2026-05-08 00:27 39.13651 -76.95595 3059 ft 215 kts 358°
2026-05-08 00:27 39.15128 -76.95603 3019 ft 210 kts 359°
2026-05-08 00:27 39.16551 -76.95314 3010 ft 209 kts 24°
2026-05-08 00:27 39.17729 -76.94216 3045 ft 211 kts 46°
2026-05-08 00:28 39.18491 -76.92602 3046 ft 213 kts 70°
2026-05-08 00:28 39.18691 -76.90718 3046 ft 214 kts 94°
2026-05-08 00:28 39.18584 -76.88813 3053 ft 206 kts 94°
2026-05-08 00:28 39.18492 -76.87073 3029 ft 184 kts 93°
2026-05-08 00:29 39.18408 -76.85482 2889 ft 173 kts 94°
2026-05-08 00:29 39.18315 -76.83949 2754 ft 170 kts 94°
2026-05-08 00:29 39.18227 -76.82436 2531 ft 169 kts 93°
2026-05-08 00:29 39.18179 -76.81440 2385 ft 168 kts 93°
2026-05-08 00:30 39.18105 -76.79941 2125 ft 168 kts 95°
2026-05-08 00:30 39.18019 -76.78455 1859 ft 166 kts 96°
2026-05-08 00:30 39.17925 -76.76999 1618 ft 157 kts 96°
2026-05-08 00:30 39.17835 -76.75178 1300 ft 150 kts 97°
2026-05-08 00:31 39.17786 -76.74271 1130 ft 150 kts 97°
2026-05-08 00:31 39.17711 -76.72945 840 ft 147 kts 97°
2026-05-08 00:31 39.17638 -76.71644 637 ft 145 kts 99°
2026-05-08 00:31 39.17561 -76.70369 451 ft 144 kts 97°
2026-05-08 00:32 39.17485 -76.69086 243 ft 144 kts 98°
2026-05-08 00:32 39.17411 -76.67842 151 ft 129 kts 95°
2026-05-08 00:32 39.17362 -76.67009 151 ft 50 kts 94°
2026-05-08 00:32 39.17346 -76.66698 152 ft 14 kts 90°
2026-05-08 00:33 39.17357 -76.66616 153 ft 5 kts 52°
2026-05-08 00:33 39.17397 -76.66590 153 ft 10 kts 16°
2026-05-08 00:33 39.17447 -76.66539 154 ft 12 kts 69°
2026-05-08 00:33 39.17512 -76.66443 154 ft 15 kts 32°
2026-05-08 00:34 39.17599 -76.66371 155 ft 14 kts 33°
2026-05-08 00:34 39.17676 -76.66305 155 ft 13 kts 33°
2026-05-08 00:34 39.17755 -76.66238 155 ft 17 kts 33°
2026-05-08 00:34 39.17871 -76.66140 155 ft 22 kts 32°
2026-05-08 00:35 39.17980 -76.66050 154 ft 12 kts 32°
2026-05-08 00:35 39.18054 -76.66059 154 ft 10 kts 329°
2026-05-08 00:35 39.18116 -76.66110 155 ft 12 kts 326°
2026-05-08 00:35 39.18199 -76.66187 156 ft 17 kts 324°
2026-05-08 00:36 39.18289 -76.66278 156 ft 11 kts 301°
2026-05-08 00:36 39.18263 -76.66361 156 ft 10 kts 235°
2026-05-08 00:36 39.18225 -76.66433 156 ft 10 kts 235°
2026-05-08 00:36 39.18178 -76.66491 156 ft 9 kts 208°
2026-05-08 00:37 39.18129 -76.66507 156 ft 5 kts 171°
2026-05-08 00:37 39.18117 -76.66502 156 ft 1 kts 162°